When you browse on this site, cookies collect data to enhance your experience and personalize the content and advertising you see.
Visit our Privacy Policy to learn more. By continuing to use the site, you agree to this use of cookies and data.
  • Em Portugal
  • Lista de países
  • Para 7 dias
  • Temperatura da água
  • Mapas de satélite
  • Mapa do tempo
  • Widgets de tempo
  • user-avatar
    Iniciar Sessão

    Previsão horária em Vitebsk

    Hoje, 19 Fevereiro, Terça-feira

    Tempo Temperatura Precipitação Vento Pressão Humidade
    00:00 -6°C° 0 mm 3 m/s 751 mmHg 81%
    01:00 -7°C° 0 mm 3 m/s 751 mmHg 81%
    02:00 -8°C° 0 mm 3 m/s 751 mmHg 81%
    03:00 -7°C° 0 mm 3 m/s 750 mmHg 81%
    04:00 -7°C° 0 mm 3 m/s 750 mmHg 81%
    05:00 -8°C° 0 mm 4 m/s 749 mmHg 81%
    06:00 -8°C° 0 mm 4 m/s 749 mmHg 81%
    07:00 -8°C° 0 mm 4 m/s 749 mmHg 81%
    08:00 -7°C° 0 mm 4 m/s 748 mmHg 81%
    09:00 -6°C° 0 mm 5 m/s 748 mmHg 80%
    10:00 -5°C° 0 mm 5 m/s 747 mmHg 79%
    11:00 -2°C° 0 mm 5 m/s 747 mmHg 78%
    12:00 -1°C° 0 mm 5 m/s 746 mmHg 80%
    13:00 -1°C° 0 mm 5 m/s 745 mmHg 82%
    14:00 0°C° 0 mm 5 m/s 744 mmHg 85%
    15:00 -1°C° 0 mm 5 m/s 744 mmHg 85%
    16:00 -1°C° 0 mm 5 m/s 743 mmHg 86%
    17:00 -1°C° 0 mm 5 m/s 742 mmHg 87%
    18:00 -1°C° 0 mm 5 m/s 742 mmHg 88%
    19:00 -1°C° 0 mm 5 m/s 741 mmHg 88%
    20:00 -1°C° 0 mm 5 m/s 741 mmHg 89%
    21:00 -1°C° 0 mm 5 m/s 740 mmHg 90%
    22:00 -1°C° 0 mm 5 m/s 739 mmHg 91%
    23:00 -1°C° 0 mm 5 m/s 738 mmHg 92%

    Amanhã, 20 Fevereiro, Quarta-feira

    Tempo Temperatura Precipitação Vento Pressão Humidade
    00:00 -1°C° 0 mm 5 m/s 738 mmHg 91%
    01:00 -1°C° 0 mm 5 m/s 738 mmHg 91%
    02:00 -1°C° 0 mm 5 m/s 738 mmHg 91%
    03:00 -1°C° 0.1 mm 4 m/s 737 mmHg 92%
    04:00 -1°C° 0.1 mm 4 m/s 737 mmHg 94%
    05:00 0°C° 0.1 mm 4 m/s 737 mmHg 95%
    06:00 0°C° 0 mm 4 m/s 737 mmHg 94%
    07:00 0°C° 0 mm 4 m/s 737 mmHg 93%
    08:00 0°C° 0 mm 5 m/s 737 mmHg 93%
    09:00 0°C° 0.1 mm 5 m/s 737 mmHg 93%
    10:00 0°C° 0.1 mm 5 m/s 737 mmHg 93%
    11:00 0°C° 0.1 mm 5 m/s 736 mmHg 93%
    12:00 0°C° 0.1 mm 5 m/s 736 mmHg 91%
    13:00 +1°C° 0.1 mm 5 m/s 736 mmHg 90%
    14:00 +1°C° 0.1 mm 6 m/s 736 mmHg 88%
    15:00 0°C° 0.2 mm 5 m/s 736 mmHg 88%
    16:00 0°C° 0.2 mm 5 m/s 736 mmHg 87%
    17:00 0°C° 0.2 mm 5 m/s 736 mmHg 87%
    18:00 -1°C° 0.3 mm 6 m/s 736 mmHg 86%
    19:00 -1°C° 0.3 mm 6 m/s 736 mmHg 85%
    20:00 -2°C° 0.3 mm 7 m/s 736 mmHg 85%
    21:00 -3°C° 0 mm 7 m/s 736 mmHg 83%
    22:00 -4°C° 0 mm 7 m/s 736 mmHg 81%
    23:00 -7°C° 0 mm 7 m/s 737 mmHg 80%

    Depois de amanhã, 21 Fevereiro, Quinta-feira

    Tempo Temperatura Precipitação Vento Pressão Humidade
    00:00 -6°C° 0.1 mm 7 m/s 737 mmHg 79%
    01:00 -6°C° 0.1 mm 7 m/s 738 mmHg 79%
    02:00 -6°C° 0.1 mm 7 m/s 738 mmHg 78%
    03:00 -6°C° 0 mm 7 m/s 739 mmHg 78%
    04:00 -7°C° 0 mm 7 m/s 739 mmHg 78%
    05:00 -7°C° 0 mm 7 m/s 739 mmHg 77%
    06:00 -7°C° 0.1 mm 7 m/s 740 mmHg 76%
    07:00 -8°C° 0.1 mm 7 m/s 740 mmHg 75%
    08:00 -8°C° 0.1 mm 7 m/s 741 mmHg 73%
    09:00 -8°C° 0.1 mm 7 m/s 741 mmHg 71%
    10:00 -8°C° 0.1 mm 7 m/s 742 mmHg 70%
    11:00 -8°C° 0.1 mm 7 m/s 742 mmHg 68%
    12:00 -8°C° 0 mm 7 m/s 743 mmHg 68%
    13:00 -8°C° 0 mm 7 m/s 743 mmHg 68%
    14:00 -7°C° 0 mm 7 m/s 744 mmHg 67%
    15:00 -8°C° 0 mm 6 m/s 744 mmHg 69%
    16:00 -8°C° 0 mm 6 m/s 745 mmHg 70%
    17:00 -8°C° 0 mm 5 m/s 745 mmHg 71%
    18:00 -8°C° 0 mm 5 m/s 746 mmHg 73%
    19:00 -8°C° 0 mm 5 m/s 747 mmHg 74%
    20:00 -10°C° 0 mm 5 m/s 747 mmHg 75%
    21:00 -10°C° 0 mm 5 m/s 748 mmHg 75%
    22:00 -11°C° 0 mm 5 m/s 748 mmHg 75%
    23:00 -11°C° 0 mm 5 m/s 749 mmHg 74%

    22 Fevereiro, Sexta-feira

    Tempo Temperatura Precipitação Vento Pressão Humidade
    00:00 -11°C° 0 mm 4 m/s 749 mmHg 74%
    01:00 -11°C° 0 mm 4 m/s 750 mmHg 75%
    02:00 -12°C° 0 mm 4 m/s 751 mmHg 75%
    03:00 -12°C° 0 mm 4 m/s 751 mmHg 75%
    04:00 -13°C° 0 mm 5 m/s 752 mmHg 75%
    05:00 -13°C° 0 mm 5 m/s 753 mmHg 75%
    06:00 -13°C° 0 mm 5 m/s 753 mmHg 74%
    07:00 -13°C° 0 mm 5 m/s 754 mmHg 72%
    08:00 -14°C° 0 mm 5 m/s 755 mmHg 71%
    09:00 -13°C° 0 mm 5 m/s 755 mmHg 70%
    10:00 -12°C° 0 mm 5 m/s 756 mmHg 69%
    11:00 -11°C° 0 mm 5 m/s 756 mmHg 67%
    12:00 -10°C° 0 mm 5 m/s 756 mmHg 64%
    13:00 -9°C° 0 mm 6 m/s 756 mmHg 61%
    14:00 -8°C° 0 mm 6 m/s 756 mmHg 58%
    15:00 -9°C° 0 mm 6 m/s 756 mmHg 61%
    16:00 -9°C° 0 mm 6 m/s 756 mmHg 63%
    17:00 -10°C° 0 mm 5 m/s 755 mmHg 66%
    18:00 -10°C° 0 mm 5 m/s 756 mmHg 69%
    19:00 -11°C° 0 mm 6 m/s 756 mmHg 71%
    20:00 -11°C° 0 mm 6 m/s 757 mmHg 74%
    21:00 -11°C° 0 mm 5 m/s 757 mmHg 75%
    22:00 -12°C° 0 mm 5 m/s 757 mmHg 75%
    23:00 -12°C° 0 mm 5 m/s 758 mmHg 75%

    23 Fevereiro, Sábado

    Tempo Temperatura Precipitação Vento Pressão Humidade
    00:00 -13°C° 0 mm 5 m/s 758 mmHg 76%
    01:00 -14°C° 0 mm 4 m/s 759 mmHg 77%
    02:00 -14°C° 0 mm 4 m/s 759 mmHg 77%
    03:00 -13°C° 0 mm 3 m/s 759 mmHg 78%
    04:00 -14°C° 0 mm 3 m/s 759 mmHg 79%
    05:00 -14°C° 0 mm 3 m/s 759 mmHg 80%
    06:00 -14°C° 0 mm 3 m/s 760 mmHg 81%
    07:00 -14°C° 0 mm 3 m/s 760 mmHg 82%
    08:00 -14°C° 0 mm 3 m/s 760 mmHg 83%
    09:00 -13°C° 0 mm 3 m/s 760 mmHg 80%
    10:00 -12°C° 0 mm 3 m/s 760 mmHg 77%
    11:00 -12°C° 0 mm 3 m/s 760 mmHg 73%
    12:00 -10°C° 0 mm 3 m/s 760 mmHg 70%
    13:00 -9°C° 0 mm 3 m/s 760 mmHg 67%
    14:00 -8°C° 0 mm 3 m/s 760 mmHg 64%
    15:00 -9°C° 0 mm 3 m/s 760 mmHg 66%
    16:00 -8°C° 0 mm 2 m/s 760 mmHg 68%
    17:00 -8°C° 0 mm 2 m/s 760 mmHg 70%
    18:00 -8°C° 0 mm 2 m/s 760 mmHg 72%
    19:00 -8°C° 0 mm 2 m/s 760 mmHg 73%
    20:00 -9°C° 0 mm 2 m/s 761 mmHg 75%
    21:00 -8°C° 0 mm 1 m/s 761 mmHg 76%
    22:00 -8°C° 0 mm 1 m/s 761 mmHg 76%
    23:00 -8°C° 0 mm 1 m/s 761 mmHg 77%

    24 Fevereiro, Domingo

    Tempo Temperatura Precipitação Vento Pressão Humidade
    00:00 -8°C° 0 mm 1 m/s 761 mmHg 77%
    01:00 -8°C° 0 mm 1 m/s 761 mmHg 76%
    02:00 -9°C° 0 mm 1 m/s 762 mmHg 75%
    03:00 -9°C° 0 mm 0 m/s 761 mmHg 75%
    04:00 -9°C° 0 mm 0 m/s 761 mmHg 74%
    05:00 -9°C° 0 mm 0 m/s 761 mmHg 73%
    06:00 -9°C° 0 mm 0 m/s 762 mmHg 73%
    07:00 -8°C° 0 mm 1 m/s 762 mmHg 73%
    08:00 -8°C° 0 mm 1 m/s 762 mmHg 73%
    09:00 -7°C° 0 mm 1 m/s 762 mmHg 73%
    10:00 -6°C° 0 mm 1 m/s 762 mmHg 72%
    11:00 -3°C° 0 mm 1 m/s 762 mmHg 72%
    12:00 -4°C° 0 mm 2 m/s 762 mmHg 74%
    13:00 -4°C° 0 mm 2 m/s 762 mmHg 76%
    14:00 -3°C° 0 mm 2 m/s 761 mmHg 77%
    15:00 -3°C° 0 mm 2 m/s 761 mmHg 81%
    16:00 -4°C° 0 mm 2 m/s 761 mmHg 84%
    17:00 -4°C° 0 mm 2 m/s 761 mmHg 87%
    18:00 -5°C° 0 mm 2 m/s 760 mmHg 88%
    19:00 -5°C° 0 mm 2 m/s 760 mmHg 90%
    20:00 -5°C° 0 mm 2 m/s 760 mmHg 91%
    21:00 -4°C° 0 mm 2 m/s 759 mmHg 91%
    22:00 -5°C° 0 mm 3 m/s 759 mmHg 91%
    23:00 -5°C° 0 mm 3 m/s 759 mmHg 91%
    Mostrar mais